Zurück zum Katalog

ROCSAT 2

AktivWissenschaftSSO
NORAD 28254·PAYLOAD·🇹🇼 Taiwan

Gestartet May 20, 2004 von Vandenberg Space Force Base

Loading…

Nächste Überflüge (nächste 24 Stunden)

TLE

AktuellSource: Space-Track

Epoche: Sep 14, 2026, 09:11 UTC

1 28254U 04018A   26257.38330318 -.00000041  00000-0  88724-6 0  9996
2 28254  98.8509 222.1321 0003226 101.1362  61.9280 14.01233534141246

Verfolge ROCSAT 2 in Echtzeit mit AllMySat

Download on the App Store